Regional Weather Roundup
Issued by NWS

Home | Current Version | Previous Version | Graphics & Text | Print | Product List | Glossary On
Versions: 1 2 3 4 5 6 7 8 9 10 11 12 13 14 15 16 17 18 19 20 21 22 23 24 25 26 27 28 29 30 31 32 33 34 35 36 37 38 39 40 41 42 43 44 45 46 47 48 49 50
000
ASUS43 KDMX 052003
RWRIA

WEATHER ROUNDUP FOR IOWA
NATIONAL WEATHER SERVICE DES MOINES IA
300 PM CDT THU MAY 05 2016

NOTE: "FAIR" INDICATES FEW OR NO CLOUDS BELOW 12,000 FEET WITH NO
SIGNIFICANT WEATHER AND/OR OBSTRUCTIONS TO VISIBILITY.

* - THESE STATIONS ARE NOT NWS STATIONS...THUS NOT UNDER NWS
QUALITY CONTROL.  THEY ALSO DO NOT REPORT WEATHER SUCH
AS PRECIPITATION OR FOG.

IAZ001>003-012>014-020>022-031>034-043>046-052100-
   NORTHWEST IOWA

CITY           SKY/WX    TMP DP  RH WIND       PRES   REMARKS
CARROLL *      SUNNY     72  32  23 CALM      30.05F
CHEROKEE *     SUNNY     73  39  29 S7        30.04F
DENISON *      SUNNY     72  36  26 VRB6      30.04S
LE MARS *      SUNNY     75  41  29 SW10      30.04S
ORANGE CITY *  SUNNY     73  39  29 S3        30.03S
SHELDON *      SUNNY     75  37  25 SW9       30.02F
SIOUX CITY     SUNNY     77  46  33 SE9       30.03S
SPENCER        SUNNY     74  35  24 S8        30.03F
STORM LAKE *   SUNNY     72  32  23 CALM      30.05F
$$

IAZ055>058-069>071-079>083-090>094-052100-
   SOUTHWEST IOWA

CITY           SKY/WX    TMP DP  RH WIND       PRES   REMARKS
ATLANTIC *     SUNNY     72  36  26 VRB6      30.06F
AUDUBON *      SUNNY     72  30  21 CALM      30.07F
CLARINDA *       N/A     70  36  28 MISG      30.09F
COUNCIL BLFS * SUNNY     73  41  31 CALM      30.06F
CRESTON *      SUNNY     68  36  30 VRB3      30.09S
HARLAN  *      SUNNY     73  34  23 S6        30.09F
LAMONI         MOSUNNY   67  36  31 W5        30.07F
RED OAK *      SUNNY     72  41  33 VRB6      30.07F
SHENANDOAH *   SUNNY     73  37  27 VRB7      30.07F
$$

IAZ047>049-059>061-072>074-084-052100-
   CENTRAL IOWA

CITY           SKY/WX    TMP DP  RH WIND       PRES   REMARKS
AMES           SUNNY     69  29  22 CALM      30.05F
ANKENY *       SUNNY     68  32  26 VRB5      30.06F
BOONE *        SUNNY     68  34  28 VRB6      30.05F
CHARITON *     PTSUNNY   64  34  32 NW5       30.08F
DES MOINES     MOSUNNY   69  32  25 VRB6      30.06F
GRINNELL*      SUNNY     66  25  20 CALM      30.07S
KNOXVILLE *    MOSUNNY   64  30  27 CALM      30.06F
MARSHALLTOWN   SUNNY     67  30  25 VRB6      30.05F
NEWTON *       SUNNY     68  28  22 VRB7      30.05F
PERRY *          N/A     70  30  23 W5        30.06F
$$

IAZ004>006-015-016-023>025-035-036-052100-
   NORTH CENTRAL IOWA

CITY           SKY/WX    TMP DP  RH WIND       PRES   REMARKS
ALGONA *       MOSUNNY   72  34  25 W9        30.03F
CLARION *      SUNNY     72  30  21 SW8       30.04F
ESTHERVILLE    SUNNY     73  38  27 W10       30.02F
FORT DODGE *   SUNNY     72  37  28 SW7       30.05F
MASON CITY     SUNNY     71  35  26 SW8       30.04F
FOREST CITY *    N/A     70  34  26 W7        30.02F
WEBSTER CITY * SUNNY     70  30  23 SW8G14    30.03F
IOWA FALLS *     N/A     71  30  22 CALM      30.05F
$$

IAZ007>011-017>019-026>030-037>042-050>054-066-052100-
   NORTHEAST IOWA

CITY           SKY/WX    TMP DP  RH WIND       PRES   REMARKS
CEDAR RAPIDS   SUNNY     66  37  34 VRB6      30.03F
CHARLES CITY * SUNNY     68  30  24 SW10      30.04F
CLINTON *      SUNNY     63  39  41 VRB7      30.03F
DECORAH *      SUNNY     64  30  27 VRB6G13   30.03S
DUBUQUE        SUNNY     64  39  39 N6        30.03F
MONTICELLO *   SUNNY     64  34  32 W8        30.03F
OELWEIN *      SUNNY     66  28  24 CALM      30.04F
WATERLOO       SUNNY     67  30  25 W8        30.05S
$$

IAZ064-065-067-068-078-052100-
   EAST CENTRAL IOWA

CITY           SKY/WX    TMP DP  RH WIND       PRES   REMARKS
DAVENPORT      SUNNY     65  34  31 N6        30.04S
IOWA CITY      SUNNY     65  39  38 W8        30.06S
MT. PLEASANT * SUNNY     68  38  33 NW5       30.06S
MUSCATINE *    SUNNY     66  39  37 VRB6      30.05S
QUAD CITIES    SUNNY     67  36  31 NW10      30.02F
$$

IAZ062-063-075>077-085>089-095>099-052100-
   SOUTHEAST IOWA

CITY           SKY/WX    TMP DP  RH WIND       PRES   REMARKS
BURLINGTON     SUNNY     65  40  39 N9        30.04F
FAIRFIELD *    SUNNY     64  36  34 NW9       30.06S
FORT MADISON * SUNNY     64  37  36 CALM      30.05F
KEOKUK *       SUNNY     64  41  42 NW6G13    30.05S
OSKALOOSA *      N/A     66  27  22 NE12      30.06F
OTTUMWA        MOSUNNY   66  34  30 N7        30.06F
WASHINGTON *   SUNNY     66  37  34 N10G16    30.06F
$$

ABBREVIATIONS USED IN REMARKS
   TC - TEMPERATURES IN CELSIUS
  WCI - WIND CHILL INDEX
   HX - HEAT INDEX
  VSB - VISIBILITY
$$





USA.gov is the U.S. government's official web portal to all federal, state and local government web resources and services.